Date String (YYYY-MM-DD hh:mm:ss) UTC,Instrument flags,Ambient pressure (hPa),Sample flow (lpm),Bypass flow (lpm),Sample temperature (°C),Ambient temperature (°C),ASC tube jacket temperature (°C),LED temperature (°C),Box temperature (°C),Sample RH (%),Span deviation,Mass concentration (μg/m³),Mass concentration (μg/m³),Mass concentration (μg/m³)
DateTimeUTC,F1_M11,P_M11,Q1_M11,Q2_M11,T1_M11,T2_M11,T3_M11,T4_M11,T5_M11,U1_M11,ZSPAN_M11,X0_M11,X2_M11,X1_M11
2022-05-20 10:00:00,,0816.5,5.01,0.00,26.7,25.6,00.0,35.6,28.6,17.9,0000.0,0005.34,0003.26,0002.97
2022-05-20 10:01:00,,0816.6,5.00,0.00,26.7,25.6,00.0,35.6,28.6,17.9,0000.0,0005.33,0003.25,0002.95
2022-05-20 10:02:00,,0816.7,4.99,0.00,26.7,25.6,00.0,35.6,28.6,17.9,0000.0,0005.28,0003.23,0002.92
2022-05-20 10:03:00,,0816.8,5.00,0.00,26.7,25.6,00.0,35.7,28.6,17.9,0000.0,0005.14,0003.21,0002.91
2022-05-20 10:04:00,,0816.7,5.00,0.00,26.7,25.6,00.0,35.7,28.6,17.9,0000.0,0005.21,0003.23,0002.92
2022-05-20 10:05:00,,0816.7,5.00,0.00,26.7,25.6,00.0,35.7,28.6,17.9,0000.0,0005.18,0003.22,0002.92
2022-05-20 10:06:00,,0816.5,5.00,0.00,26.7,25.6,00.0,35.7,28.6,17.9,0000.0,0004.58,0003.21,0002.91
2022-05-20 10:07:00,,0816.7,5.00,0.00,26.7,25.6,00.0,35.7,28.6,17.9,0000.0,0003.94,0003.21,0002.91
2022-05-20 10:08:00,,0816.7,5.00,0.00,26.7,25.6,00.0,35.7,28.6,17.9,0000.0,0004.00,0003.22,0002.92
2022-05-20 10:09:00,,0816.7,4.99,0.00,26.7,25.6,00.0,35.7,28.6,17.9,0000.0,0004.07,0003.24,0002.94
2022-05-20 10:10:00,,0816.6,5.01,0.00,26.7,25.6,00.0,35.7,28.6,17.8,0000.0,0004.16,0003.26,0002.96
2022-05-20 10:11:00,,0816.7,5.01,0.00,26.7,25.6,00.0,35.7,28.6,17.9,0000.0,0004.27,0003.28,0002.98
2022-05-20 10:12:00,,0816.5,4.99,0.00,26.7,25.5,00.0,35.7,28.5,17.9,0000.0,0004.33,0003.31,0003.01
2022-05-20 10:13:00,,0816.5,5.00,0.00,26.6,25.5,00.0,35.6,28.4,18.0,0000.0,0004.39,0003.34,0003.03
2022-05-20 10:14:00,,0816.4,5.00,0.00,26.6,25.4,00.0,35.6,28.4,18.0,0000.0,0004.61,0003.38,0003.05
2022-05-20 10:15:00,,0816.4,5.01,0.00,26.6,25.3,00.0,35.6,28.3,18.0,0000.0,0004.50,0003.36,0003.07
2022-05-20 10:16:00,,0816.4,5.00,0.00,26.5,25.3,00.0,35.6,28.3,18.1,0000.0,0004.65,0003.39,0003.10
2022-05-20 10:17:00,,0816.4,4.99,0.00,26.5,25.2,00.0,35.6,28.2,18.2,0000.0,0004.74,0003.42,0003.13
2022-05-20 10:18:00,,0816.3,5.00,0.00,26.4,25.1,00.0,35.5,28.2,18.2,0000.0,0004.82,0003.44,0003.14
2022-05-20 10:19:00,,0816.3,5.00,0.00,26.4,25.1,00.0,35.5,28.1,18.3,0000.0,0004.80,0003.44,0003.13
2022-05-20 10:20:00,,0816.3,5.01,0.00,26.4,25.0,00.0,35.5,28.1,18.4,0000.0,0005.03,0003.48,0003.13
2022-05-20 10:21:00,,0816.3,5.00,0.00,26.3,25.0,00.0,35.5,28.0,18.4,0000.0,0005.19,0003.49,0003.12
2022-05-20 10:22:00,,0816.3,5.01,0.00,26.3,24.9,00.0,35.5,28.0,18.6,0000.0,0005.11,0003.48,0003.12
2022-05-20 10:23:00,,0816.2,5.00,0.00,26.2,24.9,00.0,35.4,27.9,19.0,0000.0,0005.10,0003.46,0003.11
2022-05-20 10:24:00,,0816.1,5.00,0.00,26.2,24.8,00.0,35.4,27.9,20.8,0000.0,0005.14,0003.44,0003.10
2022-05-20 10:25:00,,0816.0,4.98,0.00,26.1,24.7,00.0,35.4,27.8,20.8,0000.0,0005.14,0003.41,0003.10
2022-05-20 10:26:00,,0816.0,5.01,0.00,26.1,24.7,00.0,35.3,27.8,19.6,0000.0,0005.69,0003.41,0003.07
2022-05-20 10:27:00,,0816.0,5.00,0.00,26.1,24.7,00.0,35.3,27.8,19.3,0000.0,0005.55,0003.39,0003.03
2022-05-20 10:28:00,,0816.0,5.00,0.00,26.0,24.6,00.0,35.3,27.7,19.3,0000.0,0005.37,0003.34,0002.99
2022-05-20 10:29:00,,0816.1,4.99,0.00,26.0,24.6,00.0,35.2,27.7,19.3,0000.0,0005.21,0003.30,0002.96
2022-05-20 10:30:00,,0816.3,4.99,0.00,26.0,24.6,00.0,35.2,27.7,19.3,0000.0,0005.17,0003.29,0002.96
2022-05-20 10:31:00,,0816.3,5.00,0.00,26.0,24.6,00.0,35.2,27.7,19.3,0000.0,0005.03,0003.27,0002.95
2022-05-20 10:32:00,,0816.4,4.99,0.00,25.9,24.6,00.0,35.1,27.7,19.3,0000.0,0004.85,0003.24,0002.95
2022-05-20 10:33:00,,0816.4,5.00,0.00,25.9,24.5,00.0,35.1,27.6,19.4,0000.0,0004.73,0003.22,0002.94
2022-05-20 10:34:00,,0816.3,4.99,0.00,25.9,24.5,00.0,35.1,27.7,19.4,0000.0,0004.62,0003.21,0002.94
2022-05-20 10:35:00,,0816.2,4.98,0.00,25.9,24.6,00.0,35.1,27.7,19.5,0000.0,0004.52,0003.20,0002.93
2022-05-20 10:36:00,,0816.1,5.01,0.00,25.9,24.6,00.0,35.0,27.7,19.5,0000.0,0004.40,0003.20,0002.93
2022-05-20 10:37:00,,0816.1,4.99,0.00,25.9,24.6,00.0,35.0,27.7,19.5,0000.0,0003.80,0003.19,0002.94
2022-05-20 10:38:00,,0816.2,5.00,0.00,25.9,24.6,00.0,35.0,27.7,19.5,0000.0,0003.82,0003.20,0002.95
2022-05-20 10:39:00,,0816.2,5.00,0.00,25.9,24.6,00.0,35.0,27.6,19.5,0000.0,0003.91,0003.23,0002.97
2022-05-20 10:40:00,,0816.3,5.00,0.00,25.8,24.6,00.0,35.0,27.6,19.5,0000.0,0003.99,0003.25,0002.98
2022-05-20 10:41:00,,0816.4,4.99,0.00,25.8,24.6,00.0,35.0,27.6,19.5,0000.0,0003.94,0003.24,0002.97
2022-05-20 10:42:00,,0816.5,5.00,0.00,25.8,24.6,00.0,35.0,27.6,19.6,0000.0,0004.27,0003.24,0002.98
2022-05-20 10:43:00,,0816.5,5.01,0.00,25.8,24.6,00.0,34.9,27.6,19.5,0000.0,0005.25,0003.24,0003.00
2022-05-20 10:44:00,,0816.4,5.00,0.00,25.8,24.6,00.0,34.9,27.6,19.6,0000.0,0005.91,0003.26,0003.01
2022-05-20 10:45:00,,0816.5,5.00,0.00,25.8,24.6,00.0,34.9,27.6,19.5,0000.0,0006.15,0003.29,0003.03
2022-05-20 10:46:00,,0816.5,5.00,0.00,25.8,24.6,00.0,34.9,27.6,19.5,0000.0,0006.09,0003.28,0003.04
2022-05-20 10:47:00,,0816.5,5.01,0.00,25.8,24.6,00.0,34.9,27.6,19.5,0000.0,0006.20,0003.30,0003.07
2022-05-20 10:48:00,,0816.5,4.98,0.00,25.8,24.5,00.0,34.9,27.6,19.6,0000.0,0006.52,0003.36,0003.09
2022-05-20 10:49:00,,0816.5,5.01,0.00,25.8,24.5,00.0,34.9,27.6,19.6,0000.0,0006.57,0003.37,0003.10
2022-05-20 10:50:00,,0816.5,5.00,0.00,25.8,24.5,00.0,34.8,27.6,19.6,0000.0,0006.56,0003.37,0003.10
2022-05-20 10:51:00,,0816.6,4.99,0.00,25.8,24.5,00.0,34.8,27.5,19.6,0000.0,0006.49,0003.35,0003.09
2022-05-20 10:52:00,,0816.6,5.00,0.00,25.8,24.5,00.0,34.8,27.6,19.6,0000.0,0006.56,0003.36,0003.09
2022-05-20 10:53:00,,0816.5,4.99,0.00,25.7,24.5,00.0,34.8,27.5,19.6,0000.0,0006.15,0003.36,0003.09
2022-05-20 10:54:00,,0816.7,5.00,0.00,25.7,24.5,00.0,34.8,27.5,19.6,0000.0,0005.20,0003.39,0003.09
2022-05-20 10:55:00,,0816.5,5.01,0.00,25.7,24.4,00.0,34.8,27.5,19.6,0000.0,0004.62,0003.38,0003.09
2022-05-20 10:56:00,,0816.4,5.01,0.00,25.7,24.4,00.0,34.8,27.4,19.7,0000.0,0004.38,0003.35,0003.06
2022-05-20 10:57:00,,0816.4,4.99,0.00,25.6,24.3,00.0,34.8,27.4,19.7,0000.0,0004.45,0003.36,0003.03
2022-05-20 10:58:00,,0816.4,4.99,0.00,25.6,24.3,00.0,34.8,27.4,19.7,0000.0,0004.30,0003.34,0002.99
2022-05-20 10:59:00,,0816.4,5.00,0.00,25.6,24.2,00.0,34.7,27.3,19.7,0000.0,0004.06,0003.27,0002.93
